Regional Weather Roundup
Issued by NWS Sterling, VA

Home | Current Version | Previous Version | Text Only | Print | Product List | Glossary On
Versions: 1 2 3 4 5 6 7 8 9 10 11 12 13 14 15 16 17 18 19 20 21 22 23 24 25 26 27 28 29 30 31 32 33 34 35 36 37 38 39 40 41 42 43 44 45 46 47 48 49 50
818
ASUS41 KLWX 271910
RWRLWX

REGIONAL WEATHER ROUNDUP
NATIONAL WEATHER SERVICE BALTIMORE MD/WASHINGTON DC
200 PM EST MON FEB 27 2017

Note: "FAIR" indicates few or no clouds below 12,000 feet
with no significant weather and/or obstructions to visibility.
 TC=TEMPERATURE CELSIUS

 * =Non NWS site. Station does not report precipitation (e.g. rain,
    snow, etc.), thunder, or fog.

DCZ001-MDZ009-015-VAZ040>042-051-053>054-272000-
WASHINGTON METRO

CITY           SKY/WX    TMP DP  RH WIND       PRES   REMARKS
WASHINGTON NAT CLOUDY    53  28  38 S12       30.38F
DULLES         CLOUDY    52  22  30 S8        30.36F
ANDREWS AFB    CLOUDY    53  24  32 S9        30.36F
FT BELVOIR     CLOUDY    54  23  30 CALM      30.38F
QUANTICO       CLOUDY    54  32  43 SW9       30.39F
COLLEGE PARK*  CLOUDY    52  23  32 SW6       30.37F
LEESBURG*      CLOUDY    52  27  37 MISG      30.37S
MANASSAS*      PTSUNNY   56  22  26 SW9       30.37F
GAITHERSBURG*  CLOUDY    52  19  28 SW10      30.39F

$$

MDZ006>007-011-014-272000-
BALTIMORE METRO

CITY           SKY/WX    TMP DP  RH WIND       PRES   REMARKS
BWI AIRPORT    CLOUDY    55  22  27 SW7       30.36F
MD SCIENCE CTR   N/A     55  32  41 MISG      30.38F
MARTIN STATE   PTSUNNY   54  39  58 E6        30.39F
ANNAPOLIS      CLOUDY    52  32  46 S9        30.37F
FORT MEADE*    CLOUDY    54  23  30 SW9G17    30.38F

$$

MDZ012-015-019>023-272000-
MARYLAND EASTERN SHORE

CITY           SKY/WX    TMP DP  RH WIND       PRES   REMARKS
OCEAN CITY     PTSUNNY   52  32  46 S9        30.43F
SALISBURY      CLOUDY    56  26  31 SW14      30.41F
BAY BRIDGE AP* CLOUDY    52  34  50 S8        30.38F
CAMBRIDGE*     MOSUNNY   52  36  54 S12       30.40F
EASTON*        PTSUNNY   54  28  37 SW10      30.42F

$$

MDZ017>025-272000-
SOUTHERN MARYLAND

CITY           SKY/WX    TMP DP  RH WIND       PRES   REMARKS
PATUXENT RIVER CLOUDY    50  43  77 SE10      30.38F
ST INIGOES     CLOUDY    54  37  52 CALM      30.38F
LEONARDTOWN*   CLOUDY    52  30  43 SE6       30.39F

$$

MDZ003>005-272000-
NORTH CENTRAL MARYLAND

CITY           SKY/WX    TMP DP  RH WIND       PRES   REMARKS
FREDERICK*     CLOUDY    52  27  37 SW6       30.38F
HAGERSTOWN APT CLOUDY    51  21  30 S7        30.33F
WESTMINSTER*   CLOUDY    54  25  32 W8        30.34F

$$

MDZ501>502-272000-
WESTERN MARYLAND

CITY           SKY/WX    TMP DP  RH WIND       PRES   REMARKS
OAKLAND*       CLOUDY    34  34 100 SW8G16    30.29R FOG     WCI  27
CUMBERLAND*    CLOUDY    48  25  40 CALM      30.37R

$$

VAZ025>031-272000-
SHENANDOAH VALLEY

CITY           SKY/WX    TMP DP  RH WIND       PRES   REMARKS
WINCHESTER*    CLOUDY    50  21  32 S6        30.34S
FRONT ROYAL*   CLOUDY    50  23  34 CALM      30.34R
LURAY*         CLOUDY    54  28  37 SW10G16   30.33S
NEW MARKET*    PTSUNNY   51  20  29 SW10      30.32S
STAUNTON*      CLOUDY    51  21  30 S6        30.34F
WAYNESBORO*    CLOUDY    52  17  25 SW5       30.33F

$$

WVZ021-048>050-054>055-272000-
EASTERN WEST VIRGINIA PANHANDLE

CITY           SKY/WX    TMP DP  RH WIND       PRES   REMARKS
MARTINSBURG    CLOUDY    52  20  28 S8        30.33F
PETERSBURG*    CLOUDY    55  35  46 CALM      30.32S

$$

VAZ036>039-050-272000-
CENTRAL FOOTHILLS

CITY           SKY/WX    TMP DP  RH WIND       PRES   REMARKS
CHARLOTTESVILL MOSUNNY   57  22  25 S10       30.36S
CULPEPER*      CLOUDY    56  22  26 S8        30.37F
ORANGE*        CLOUDY    54  23  30 CALM      30.38S
GORDONSVILLE*  CLOUDY    56  24  28 SW12G17   30.36R
WARRENTON*     CLOUDY    56  15  19 SW5       30.36S

$$

VAZ055>057-272000-
NORTH AND CENTRAL PIEDMONT

CITY           SKY/WX    TMP DP  RH WIND       PRES   REMARKS
FREDERICKSBRG* CLOUDY    57  28  32 S8        30.37S
STAFFORD*      CLOUDY    55  22  27 CALM      30.42R

$$

NCZ024-NYZ072-PAZ021-071-VAZ022-071-272000-
OTHER REGIONAL OBSERVATIONS

CITY           SKY/WX    TMP DP  RH WIND       PRES   REMARKS
NEW YORK CITY  MOSUNNY   52  21  29 VRB7      30.38F
PHILADELPHIA   CLOUDY    54  27  35 SW14      30.39F
PITTSBURGH     DRIZZLE   44  34  67 SW15G22   30.28S
ROANOKE        CLOUDY    54  24  31 E7        30.35F
RICHMOND       CLOUDY    59  25  27 S14       30.37F
RALEIGH        PTSUNNY   65  21  18 S10       30.39F

$$

ANZ530>537-272000-
MARINE OBSERVATIONS

STATION/POSITION TIME  TEMP    WIND        PRES
                       AIR SEA DIR/SP/G
                 (UTC) (F)     (DEG/KT/KT) (MB)
THOMAS PT LIGHT  1900   47 44  160/ 11/ 12   N/A
BALT KEY BRIDGE  1830   49      90/  8/  8 1028.7F
COVE POINT       1830   45     180/ 11/ 12 1030.1F
LEWISETTA        1824   50 48   40/  4/  5 1029.3
SOLOMONS ISLAND  1830   51 45  180/  7/  9   N/A
PINEY POINT      1824          120/  6/  6   N/A

$$





USA.gov is the U.S. government's official web portal to all federal, state and local government web resources and services.